Regional Weather Roundup
Issued by NWS

Home | Current Version | Previous Version | Graphics & Text | Print | Product List | Glossary On
Versions: 1 2 3 4 5 6 7 8 9 10 11 12 13 14 15 16 17 18 19 20 21 22 23 24 25 26 27 28 29 30 31 32 33 34 35 36 37 38 39 40 41 42 43 44 45 46 47 48 49 50
240
ASUS45 KBOI 220010
RWRID

IDAHO REGIONAL WEATHER ROUNDUP
NATIONAL WEATHER SERVICE BOISE ID
600 PM MDT FRI JUL 21 2017

NOTE: "FAIR" INDICATES FEW OR NO CLOUDS BELOW 12000 FEET
WITH NO SIGNIFICANT WEATHER AND/OR OBSTRUCTIONS TO VISIBILITY

IDZ012-014-220100-
SOUTHWEST IDAHO


CITY           SKY/WX    TMP DP  RH WIND       PRES   REMARKS
BOISE          SUNNY     94  36  13 NW18      29.98F
CALDWELL       SUNNY     92  43  18 NW7       29.98F
MOUNTAIN HOME  SUNNY     94  41  15 N9G16     29.97F HX  90
$$

IDZ016-017-220100-
SOUTHCENTRAL IDAHO


CITY           SKY/WX    TMP DP  RH WIND       PRES   REMARKS
BURLEY         SUNNY     87  34  15 W9        30.03F
JEROME         SUNNY     88  45  22 NW5       30.04F
TWIN FALLS     SUNNY     88  38  17 NW9       30.05F
$$

IDZ019>023-220100-
SOUTHEAST IDAHO


CITY           SKY/WX    TMP DP  RH WIND       PRES   REMARKS
IDAHO FALLS    SUNNY     88  34  14 S12       30.07F
POCATELLO      SUNNY     90  29  11 SW16      30.06F
REXBURG        SUNNY     84  34  16 S9        30.08F
$$

IDZ006-010-011-018-031-032-220100-
CENTRAL IDAHO MOUNTAINS


CITY           SKY/WX    TMP DP  RH WIND       PRES   REMARKS
MCCALL         SUNNY     81  24  12 W10G17    30.14F
HAILEY         SUNNY     84  36  17 S8        30.12F
STANLEY          N/A     80  25  13 NW10      30.23S
SALMON         NOT AVBL
CHALLIS        SUNNY     88  23   9 NW10      30.07S
$$

IDZ002-004-006-007-026-220100-
NORTHERN IDAHO


CITY           SKY/WX    TMP DP  RH WIND       PRES   REMARKS
LEWISTON       SUNNY     87  41  19 W8        30.03F
LOWELL           N/A     90  44  20 CALM      29.99F
COEUR D`ALENE  SUNNY     80  41  24 W9        30.09F
MULLAN PASS    SUNNY     66  34  30 VRB3      30.25S
$$




USA.gov is the U.S. government's official web portal to all federal, state and local government web resources and services.